This is the latest recevied weather packets stored in our database for station/object WD0REW. If no packets are shown the sender has not sent any weather packets the latest 10 day(s).
| Time | Temp. | Humidity | Pressure | Rain* | Wind** | Luminosity | Snow |
|---|---|---|---|---|---|---|---|
| 1777613931 | 12.22° C | 73% | 1019.2 hPa | 0 mm | - | 0 W/m² | - |
| 1777613629 | 12.22° C | 72% | 1019.1 hPa | 0 mm | - | 0 W/m² | - |
| 1777613326 | 12.22° C | 72% | 1018.9 hPa | 0 mm | - | 0 W/m² | - |
| 1777613022 | 12.78° C | 71% | 1019 hPa | 0 mm | - | 0 W/m² | - |
| 1777612718 | 12.78° C | 70% | 1019.1 hPa | 0 mm | - | 0 W/m² | - |
| 1777612414 | 12.78° C | 70% | 1018.9 hPa | 0 mm | - | 0 W/m² | - |
| 1777612110 | 12.78° C | 71% | 1018.9 hPa | 0 mm | - | 0 W/m² | - |
| 1777611805 | 12.78° C | 69% | 1018.8 hPa | 0 mm | - | 0 W/m² | - |
| 1777611502 | 12.78° C | 69% | 1018.7 hPa | 0 mm | - | 0 W/m² | - |
| 1777611199 | 12.78° C | 68% | 1018.6 hPa | 0 mm | - | 0 W/m² | - |
| 1777610895 | 13.33° C | 67% | 1018.5 hPa | 0 mm | - | 0 W/m² | - |
| 1777610590 | 13.33° C | 67% | 1018.3 hPa | 0 mm | - | 0 W/m² | - |
| 1777610289 | 13.33° C | 66% | 1018.5 hPa | 0 mm | - | 0 W/m² | - |
| 1777609986 | 13.33° C | 65% | 1018.5 hPa | 0 mm | - | 0 W/m² | - |
| 1777609683 | 13.89° C | 65% | 1018.5 hPa | 0 mm | - | 0 W/m² | - |
| 1777609380 | 13.89° C | 65% | 1018.4 hPa | 0 mm | - | 0 W/m² | - |
| 1777609078 | 13.89° C | 65% | 1018.5 hPa | 0 mm | - | 0 W/m² | - |
| 1777608775 | 13.33° C | 65% | 1018.5 hPa | 0 mm | - | 0 W/m² | - |
| 1777608470 | 12.22° C | 70% | 1018.4 hPa | 0 mm | - | 0 W/m² | - |
| 1777608169 | 12.22° C | 71% | 1018.4 hPa | 0 mm | - | 0 W/m² | - |
| 1777607865 | 12.22° C | 70% | 1018.4 hPa | 0 mm | - | 0 W/m² | - |
| 1777607561 | 12.22° C | 70% | 1018.3 hPa | 0 mm | - | 0 W/m² | - |
| 1777607258 | 12.22° C | 69% | 1018.3 hPa | 0 mm | - | 0 W/m² | - |
| 1777606954 | 12.22° C | 68% | 1018.2 hPa | 0 mm | - | 0 W/m² | - |
| 1777606650 | 12.78° C | 68% | 1018.2 hPa | 0 mm | - | 0 W/m² | - |
* Rain latest hour (hover to see other rain measurements)
** Current wind speed in m/s (hover to see current wind gust speed)